Time,TemperatureF,DewpointF,PressureIn,WindDirection,WindDirectionDegrees,WindSpeedMPH,WindSpeedGustMPH,Humidity,HourlyPrecipIn,Conditions,Clouds,dailyrainin,SolarRadiationWatts/m^2,SoftwareType,DateUTC
2013-05-09 00:00:00,53.7,53.7,30.16,SSE,162,4.0,8.0,100,0.00,,,0.00,0002,Weather View 32 v70,2013-05-09 07:00:00,
2013-05-09 00:10:00,53.7,53.7,30.16,ENE,72,4.0,8.0,100,0.00,,,0.00,0002,Weather View 32 v70,2013-05-09 07:10:00,
2013-05-09 00:15:00,53.9,53.9,30.16,SSE,162,1.0,8.0,100,0.00,,,0.00,0001,Weather View 32 v70,2013-05-09 07:15:00,
2013-05-09 00:20:00,53.8,53.8,30.17,SSE,162,2.0,8.0,100,0.00,,,0.00,0002,Weather View 32 v70,2013-05-09 07:20:00,
2013-05-09 00:25:00,53.8,53.8,30.17,NNE,27,0.0,8.0,100,0.00,,,0.00,0002,Weather View 32 v70,2013-05-09 07:25:00,
2013-05-09 00:35:00,53.9,53.9,30.17,SW,229,0.0,8.0,100,0.00,,,0.00,0001,Weather View 32 v70,2013-05-09 07:35:00,
2013-05-09 00:40:00,54.0,54.0,30.17,South,184,0.0,8.0,100,0.00,,,0.00,0001,Weather View 32 v70,2013-05-09 07:40:00,
2013-05-09 00:45:00,54.0,54.0,30.17,West,274,3.0,7.0,100,0.00,,,0.00,0001,Weather View 32 v70,2013-05-09 07:45:00,
2013-05-09 00:50:00,53.9,53.9,30.17,West,274,1.0,7.0,100,0.00,,,0.00,0002,Weather View 32 v70,2013-05-09 07:50:00,
2013-05-09 00:55:00,53.7,53.7,30.16,North,4,6.0,7.0,100,0.00,,,0.00,0001,Weather View 32 v70,2013-05-09 07:55:00,
2013-05-09 01:05:00,53.8,53.8,30.17,NNE,27,0.0,8.0,100,0.00,,,0.00,0002,Weather View 32 v70,2013-05-09 08:05:00,
2013-05-09 01:10:00,53.8,53.8,30.16,WSW,252,1.0,8.0,100,0.00,,,0.00,0002,Weather View 32 v70,2013-05-09 08:10:00,
2013-05-09 01:15:00,53.8,53.8,30.17,North,4,0.0,8.0,100,0.00,,,0.00,0002,Weather View 32 v70,2013-05-09 08:15:00,
2013-05-09 01:20:00,53.8,53.8,30.16,NNE,27,3.0,8.0,100,0.00,,,0.00,0002,Weather View 32 v70,2013-05-09 08:20:00,
2013-05-09 01:28:00,53.8,53.8,30.16,NNE,27,1.0,8.0,100,0.00,,,0.00,0001,Weather View 32 v70,2013-05-09 08:28:00,
2013-05-09 01:35:00,53.8,53.8,30.16,ESE,117,3.0,8.0,100,0.00,,,0.00,0002,Weather View 32 v70,2013-05-09 08:35:00,
2013-05-09 01:40:00,53.8,53.8,30.16,South,184,0.0,8.0,100,0.00,,,0.00,0001,Weather View 32 v70,2013-05-09 08:40:00,
2013-05-09 01:45:00,53.8,53.8,30.16,East,94,1.0,8.0,100,0.00,,,0.00,0001,Weather View 32 v70,2013-05-09 08:45:00,
2013-05-09 01:55:00,53.7,53.7,30.16,SSE,162,2.0,8.0,100,0.00,,,0.00,0002,Weather View 32 v70,2013-05-09 08:55:00,
2013-05-09 02:00:00,53.8,53.8,30.16,ESE,117,0.0,6.0,100,0.00,,,0.00,0001,Weather View 32 v70,2013-05-09 09:00:00,
2013-05-09 02:05:00,53.8,53.8,30.16,SE,139,0.0,6.0,100,0.00,,,0.00,0001,Weather View 32 v70,2013-05-09 09:05:00,
2013-05-09 02:10:00,53.8,53.8,30.15,ESE,117,1.0,6.0,100,0.00,,,0.00,0002,Weather View 32 v70,2013-05-09 09:10:00,
2013-05-09 02:15:00,53.9,53.9,30.15,ENE,72,0.0,6.0,100,0.00,,,0.00,0002,Weather View 32 v70,2013-05-09 09:15:00,
2013-05-09 02:25:00,53.9,53.9,30.16,North,4,0.0,6.0,100,0.00,,,0.00,0001,Weather View 32 v70,2013-05-09 09:25:00,
2013-05-09 02:30:00,53.8,53.8,30.15,NW,319,1.0,6.0,100,0.00,,,0.00,0001,Weather View 32 v70,2013-05-09 09:30:00,
2013-05-09 02:35:00,53.8,53.8,30.15,North,4,4.0,6.0,100,0.00,,,0.00,0001,Weather View 32 v70,2013-05-09 09:35:00,
2013-05-09 02:40:00,53.7,53.7,30.15,WNW,297,3.0,5.0,100,0.00,,,0.00,0001,Weather View 32 v70,2013-05-09 09:40:00,
2013-05-09 02:45:00,53.7,53.7,30.15,NW,319,4.0,7.0,100,0.00,,,0.00,0002,Weather View 32 v70,2013-05-09 09:45:00,
2013-05-09 02:55:00,53.7,53.7,30.15,SSW,207,1.0,8.0,100,0.00,,,0.00,0001,Weather View 32 v70,2013-05-09 09:55:00,
2013-05-09 03:00:00,53.6,53.6,30.15,WSW,252,1.0,8.0,100,0.00,,,0.00,0001,Weather View 32 v70,2013-05-09 10:00:00,
2013-05-09 03:05:00,53.6,53.6,30.15,SW,229,1.0,8.0,100,0.00,,,0.00,0002,Weather View 32 v70,2013-05-09 10:05:00,
2013-05-09 03:15:00,53.4,53.4,30.15,NNW,342,1.0,8.0,100,0.00,,,0.00,0002,Weather View 32 v70,2013-05-09 10:15:00,
2013-05-09 03:20:00,53.4,53.4,30.15,NNE,27,1.0,8.0,100,0.00,,,0.00,0001,Weather View 32 v70,2013-05-09 10:20:00,
2013-05-09 03:25:00,53.4,53.4,30.15,NE,49,3.0,8.0,100,0.00,,,0.00,0002,Weather View 32 v70,2013-05-09 10:25:00,
2013-05-09 03:30:00,53.4,53.4,30.15,WNW,297,1.0,8.0,100,0.00,,,0.00,0001,Weather View 32 v70,2013-05-09 10:30:00,
2013-05-09 03:35:00,53.4,53.4,30.15,North,4,1.0,8.0,100,0.00,,,0.00,0001,Weather View 32 v70,2013-05-09 10:35:00,
2013-05-09 03:45:00,53.5,53.5,30.15,SSW,207,0.0,8.0,100,0.00,,,0.00,0001,Weather View 32 v70,2013-05-09 10:45:00,
2013-05-09 03:50:00,53.5,53.5,30.14,ESE,117,0.0,6.0,100,0.00,,,0.00,0001,Weather View 32 v70,2013-05-09 10:50:00,
2013-05-09 03:55:00,53.5,53.5,30.14,NE,49,0.0,6.0,100,0.00,,,0.00,0001,Weather View 32 v70,2013-05-09 10:55:00,
2013-05-09 04:00:00,53.6,53.6,30.15,WNW,297,0.0,6.0,100,0.00,,,0.00,0001,Weather View 32 v70,2013-05-09 11:00:00,
2013-05-09 04:10:00,53.6,53.6,30.14,South,184,0.0,4.0,100,0.00,,,0.00,0001,Weather View 32 v70,2013-05-09 11:10:00,
2013-05-09 04:15:00,53.6,53.6,30.14,ESE,117,0.0,4.0,100,0.00,,,0.00,0001,Weather View 32 v70,2013-05-09 11:15:00,
2013-05-09 04:20:00,53.6,53.6,30.14,ESE,117,0.0,4.0,100,0.00,,,0.00,0001,Weather View 32 v70,2013-05-09 11:20:00,
2013-05-09 04:25:00,53.6,53.6,30.15,North,4,1.0,4.0,100,0.00,,,0.00,0001,Weather View 32 v70,2013-05-09 11:25:00,
2013-05-09 04:30:00,53.4,53.4,30.14,NW,319,1.0,4.0,100,0.00,,,0.00,0001,Weather View 32 v70,2013-05-09 11:30:00,
2013-05-09 04:40:00,53.6,53.6,30.14,NNW,342,0.0,4.0,100,0.00,,,0.00,0001,Weather View 32 v70,2013-05-09 11:40:00,
2013-05-09 04:45:00,53.5,53.5,30.14,WNW,297,0.0,4.0,100,0.00,,,0.00,0001,Weather View 32 v70,2013-05-09 11:45:00,
2013-05-09 04:50:00,53.4,53.4,30.14,NW,319,2.0,4.0,100,0.00,,,0.00,0001,Weather View 32 v70,2013-05-09 11:50:00,
2013-05-09 04:55:00,53.5,53.5,30.14,South,184,0.0,4.0,100,0.00,,,0.00,0001,Weather View 32 v70,2013-05-09 11:55:00,
2013-05-09 05:05:00,53.3,53.3,30.14,North,4,0.0,4.0,100,0.00,,,0.00,0002,Weather View 32 v70,2013-05-09 12:05:00,
2013-05-09 05:10:00,53.3,53.3,30.14,SSE,162,0.0,4.0,100,0.00,,,0.00,0001,Weather View 32 v70,2013-05-09 12:10:00,
2013-05-09 05:20:00,53.3,53.3,30.14,WSW,252,1.0,4.0,100,0.00,,,0.00,0001,Weather View 32 v70,2013-05-09 12:20:00,
2013-05-09 05:25:00,53.4,53.4,30.14,SE,139,1.0,4.0,100,0.00,,,0.00,0002,Weather View 32 v70,2013-05-09 12:25:00,
2013-05-09 05:30:00,53.2,53.2,30.14,West,274,0.0,6.0,100,0.00,,,0.00,0001,Weather View 32 v70,2013-05-09 12:30:00,
2013-05-09 05:40:00,53.3,53.3,30.14,North,4,0.0,6.0,100,0.00,,,0.00,0002,Weather View 32 v70,2013-05-09 12:40:00,
2013-05-09 05:45:00,53.2,53.2,30.14,NW,319,5.0,6.0,100,0.00,,,0.00,0002,Weather View 32 v70,2013-05-09 12:45:00,
2013-05-09 05:50:00,53.1,53.1,30.14,ESE,117,1.0,6.0,100,0.00,,,0.00,0002,Weather View 32 v70,2013-05-09 12:50:00,
2013-05-09 05:55:00,53.1,53.1,30.14,West,274,1.0,6.0,100,0.00,,,0.00,0002,Weather View 32 v70,2013-05-09 12:55:00,
2013-05-09 06:00:00,53.1,53.1,30.14,ESE,117,0.0,6.0,100,0.00,,,0.00,0002,Weather View 32 v70,2013-05-09 13:00:00,
2013-05-09 06:10:00,53.0,53.0,30.15,NE,49,3.0,6.0,100,0.00,,,0.00,0003,Weather View 32 v70,2013-05-09 13:10:00,
2013-05-09 06:15:00,53.0,53.0,30.15,NNE,27,0.0,6.0,100,0.00,,,0.00,0004,Weather View 32 v70,2013-05-09 13:15:00,
2013-05-09 06:25:00,53.0,53.0,30.15,NW,319,3.0,6.0,100,0.00,,,0.00,0006,Weather View 32 v70,2013-05-09 13:25:00,
2013-05-09 06:30:00,52.9,52.9,30.16,NNW,342,1.0,6.0,100,0.00,,,0.00,0007,Weather View 32 v70,2013-05-09 13:30:00,
2013-05-09 06:35:00,53.0,53.0,30.16,SSW,207,4.0,7.0,100,0.00,,,0.00,0009,Weather View 32 v70,2013-05-09 13:35:00,
2013-05-09 06:40:00,52.7,52.7,30.16,North,4,2.0,8.0,100,0.00,,,0.00,0011,Weather View 32 v70,2013-05-09 13:40:00,
2013-05-09 06:50:00,52.9,52.9,30.16,ESE,117,1.0,8.0,100,0.00,,,0.00,0018,Weather View 32 v70,2013-05-09 13:50:00,
2013-05-09 06:55:00,53.0,53.0,30.16,NE,49,3.0,8.0,100,0.00,,,0.00,0021,Weather View 32 v70,2013-05-09 13:55:00,
2013-05-09 07:00:00,52.9,52.9,30.16,West,274,1.0,8.0,100,0.00,,,0.00,0024,Weather View 32 v70,2013-05-09 14:00:00,
2013-05-09 07:10:00,52.8,52.8,30.16,NW,319,1.0,8.0,100,0.00,,,0.00,0040,Weather View 32 v70,2013-05-09 14:10:00,
2013-05-09 07:20:00,52.9,52.9,30.16,NW,319,4.0,8.0,100,0.00,,,0.00,0053,Weather View 32 v70,2013-05-09 14:20:00,
2013-05-09 07:25:00,53.1,53.1,30.16,West,274,0.0,8.0,100,0.00,,,0.00,0055,Weather View 32 v70,2013-05-09 14:25:00,
2013-05-09 07:30:00,53.3,53.3,30.17,SE,139,0.0,8.0,100,0.00,,,0.00,0059,Weather View 32 v70,2013-05-09 14:30:00,
2013-05-09 07:35:00,53.4,53.4,30.17,NNW,342,0.0,8.0,100,0.00,,,0.00,0079,Weather View 32 v70,2013-05-09 14:35:00,
2013-05-09 07:40:00,53.6,53.6,30.17,SSE,162,1.0,6.0,100,0.00,,,0.00,0096,Weather View 32 v70,2013-05-09 14:40:00,
2013-05-09 07:50:00,53.9,53.9,30.17,NE,49,0.0,6.0,100,0.00,,,0.00,0101,Weather View 32 v70,2013-05-09 14:50:00,
2013-05-09 07:55:00,54.0,54.0,30.17,SSW,207,1.0,6.0,100,0.00,,,0.00,0122,Weather View 32 v70,2013-05-09 14:55:00,
2013-05-09 08:00:00,54.1,54.1,30.17,SW,229,0.0,6.0,100,0.00,,,0.00,0108,Weather View 32 v70,2013-05-09 15:00:00,
2013-05-09 08:05:00,54.3,54.3,30.17,West,274,1.0,6.0,100,0.00,,,0.00,0121,Weather View 32 v70,2013-05-09 15:05:00,
2013-05-09 08:15:00,54.9,54.9,30.17,SE,139,1.0,6.0,100,0.00,,,0.00,0144,Weather View 32 v70,2013-05-09 15:15:00,
2013-05-09 08:20:00,54.5,54.5,30.17,SSW,207,2.0,7.0,100,0.00,,,0.00,0158,Weather View 32 v70,2013-05-09 15:20:00,
2013-05-09 08:25:00,54.8,54.8,30.17,NW,319,3.0,7.0,100,0.00,,,0.00,0218,Weather View 32 v70,2013-05-09 15:25:00,
2013-05-09 08:30:00,55.2,55.2,30.17,SSE,162,0.0,7.0,100,0.00,,,0.00,0185,Weather View 32 v70,2013-05-09 15:30:00,
2013-05-09 08:40:00,54.7,54.7,30.18,WNW,297,6.0,9.0,100,0.00,,,0.00,0253,Weather View 32 v70,2013-05-09 15:40:00,
2013-05-09 08:45:00,54.7,54.7,30.18,WNW,297,9.0,10.0,100,0.00,,,0.00,0272,Weather View 32 v70,2013-05-09 15:45:00,
2013-05-09 08:50:00,54.8,54.8,30.18,West,274,4.0,10.0,100,0.00,,,0.00,0237,Weather View 32 v70,2013-05-09 15:50:00,
2013-05-09 08:55:00,55.4,55.4,30.18,NW,319,4.0,10.0,100,0.00,,,0.00,0253,Weather View 32 v70,2013-05-09 15:55:00,
2013-05-09 09:00:00,55.9,55.9,30.19,WNW,297,4.0,10.0,100,0.00,,,0.00,0222,Weather View 32 v70,2013-05-09 16:00:00,
2013-05-09 09:10:00,55.3,55.3,30.19,WNW,297,6.0,11.0,100,0.00,,,0.00,0302,Weather View 32 v70,2013-05-09 16:10:00,
2013-05-09 09:15:00,55.6,55.6,30.19,NW,319,3.0,11.0,100,0.00,,,0.00,0284,Weather View 32 v70,2013-05-09 16:15:00,
2013-05-09 09:20:00,55.7,55.7,30.19,SW,229,4.0,11.0,100,0.00,,,0.00,0215,Weather View 32 v70,2013-05-09 16:20:00,
2013-05-09 09:25:00,56.0,56.0,30.19,East,94,2.0,11.0,100,0.00,,,0.00,0632,Weather View 32 v70,2013-05-09 16:25:00,
2013-05-09 09:30:00,56.4,56.4,30.19,WSW,252,4.0,11.0,100,0.00,,,0.00,0650,Weather View 32 v70,2013-05-09 16:30:00,
2013-05-09 09:40:00,57.2,57.2,30.18,WNW,297,7.0,11.0,100,0.00,,,0.00,0377,Weather View 32 v70,2013-05-09 16:40:00,
2013-05-09 09:45:00,57.1,57.1,30.18,NW,319,4.0,11.0,100,0.00,,,0.00,0664,Weather View 32 v70,2013-05-09 16:45:00,
2013-05-09 09:50:00,57.9,57.9,30.18,SSW,207,4.0,11.0,100,0.00,,,0.00,0203,Weather View 32 v70,2013-05-09 16:50:00,
2013-05-09 09:55:00,57.8,57.8,30.18,SW,229,7.0,11.0,100,0.00,,,0.00,0529,Weather View 32 v70,2013-05-09 16:55:00,
2013-05-09 10:00:00,57.4,57.4,30.18,SW,229,9.0,11.0,100,0.00,,,0.00,0642,Weather View 32 v70,2013-05-09 17:00:00,
2013-05-09 10:10:00,57.7,57.7,30.18,WNW,297,7.0,13.0,100,0.00,,,0.00,0222,Weather View 32 v70,2013-05-09 17:10:00,
2013-05-09 10:15:00,57.9,57.9,30.18,West,274,5.0,13.0,100,0.00,,,0.00,0307,Weather View 32 v70,2013-05-09 17:15:00,
2013-05-09 10:20:00,58.0,58.0,30.18,WSW,252,8.0,13.0,100,0.00,,,0.00,0291,Weather View 32 v70,2013-05-09 17:20:00,
2013-05-09 10:25:00,58.0,58.0,30.18,WNW,297,6.0,13.0,100,0.00,,,0.00,0407,Weather View 32 v70,2013-05-09 17:25:00,
2013-05-09 10:30:00,58.8,58.8,30.18,SSE,162,6.0,13.0,100,0.00,,,0.00,0679,Weather View 32 v70,2013-05-09 17:30:00,
2013-05-09 10:40:00,58.9,58.9,30.18,WNW,297,7.0,15.0,100,0.00,,,0.00,0700,Weather View 32 v70,2013-05-09 17:40:00,
2013-05-09 10:45:00,59.4,59.4,30.18,SW,229,5.0,15.0,100,0.00,,,0.00,0661,Weather View 32 v70,2013-05-09 17:45:00,
2013-05-09 10:50:00,59.2,59.2,30.18,NW,319,4.0,15.0,100,0.00,,,0.00,0706,Weather View 32 v70,2013-05-09 17:50:00,
2013-05-09 10:55:00,60.1,60.1,30.17,WSW,252,6.0,15.0,100,0.00,,,0.00,0713,Weather View 32 v70,2013-05-09 17:55:00,
2013-05-09 11:05:00,60.0,60.0,30.17,SW,229,6.0,15.0,100,0.00,,,0.00,0730,Weather View 32 v70,2013-05-09 18:05:00,
2013-05-09 11:10:00,59.8,59.8,30.18,South,184,3.0,15.0,100,0.00,,,0.00,0738,Weather View 32 v70,2013-05-09 18:10:00,
2013-05-09 11:15:00,60.4,60.4,30.17,SW,229,9.0,15.0,100,0.00,,,0.00,0745,Weather View 32 v70,2013-05-09 18:15:00,
2013-05-09 11:20:00,60.6,60.6,30.17,SW,229,9.0,15.0,100,0.00,,,0.00,0749,Weather View 32 v70,2013-05-09 18:20:00,
2013-05-09 11:25:00,60.8,60.8,30.16,SE,139,1.0,15.0,100,0.00,,,0.00,0755,Weather View 32 v70,2013-05-09 18:25:00,
2013-05-09 11:33:00,61.8,61.8,30.16,SE,139,1.0,15.0,100,0.00,,,0.00,0761,Weather View 32 v70,2013-05-09 18:33:00,
2013-05-09 11:40:00,62.4,62.4,30.17,WSW,252,3.0,12.0,100,0.00,,,0.00,0769,Weather View 32 v70,2013-05-09 18:40:00,
2013-05-09 11:45:00,62.7,62.7,30.17,SSW,207,5.0,12.0,100,0.00,,,0.00,0774,Weather View 32 v70,2013-05-09 18:45:00,
2013-05-09 11:50:00,63.0,63.0,30.17,West,274,6.0,12.0,100,0.00,,,0.00,0777,Weather View 32 v70,2013-05-09 18:50:00,
2013-05-09 11:55:00,63.6,63.6,30.16,WSW,252,4.0,12.0,100,0.00,,,0.00,0783,Weather View 32 v70,2013-05-09 18:55:00,
2013-05-09 12:05:00,65.1,65.1,30.16,West,274,6.0,12.0,100,0.00,,,0.00,0792,Weather View 32 v70,2013-05-09 19:05:00,
2013-05-09 12:10:00,64.4,64.4,30.16,SW,229,6.0,11.0,100,0.00,,,0.00,0796,Weather View 32 v70,2013-05-09 19:10:00,
2013-05-09 12:15:00,65.2,65.2,30.16,WSW,252,5.0,11.0,100,0.00,,,0.00,0802,Weather View 32 v70,2013-05-09 19:15:00,
2013-05-09 12:20:00,65.7,65.7,30.16,NW,319,3.0,11.0,100,0.00,,,0.00,0806,Weather View 32 v70,2013-05-09 19:20:00,
2013-05-09 12:25:00,65.4,65.4,30.16,SW,229,6.0,11.0,100,0.00,,,0.00,0809,Weather View 32 v70,2013-05-09 19:25:00,
2013-05-09 12:34:00,65.6,65.6,30.16,SW,229,9.0,11.0,100,0.00,,,0.00,0813,Weather View 32 v70,2013-05-09 19:34:00,
2013-05-09 12:40:00,65.6,65.6,30.15,NW,319,4.0,11.0,100,0.00,,,0.00,0818,Weather View 32 v70,2013-05-09 19:40:00,
2013-05-09 12:45:00,66.2,66.2,30.15,NW,319,8.0,11.0,100,0.00,,,0.00,0785,Weather View 32 v70,2013-05-09 19:45:00,
2013-05-09 12:50:00,66.7,66.7,30.15,NW,319,9.0,11.0,100,0.00,,,0.00,0805,Weather View 32 v70,2013-05-09 19:50:00,
2013-05-09 12:55:00,66.6,66.6,30.15,NNW,342,7.0,11.0,100,0.00,,,0.00,0829,Weather View 32 v70,2013-05-09 19:55:00,
2013-05-09 13:05:00,67.1,67.1,30.15,NW,319,3.0,14.0,100,0.00,,,0.00,0831,Weather View 32 v70,2013-05-09 20:05:00,
2013-05-09 13:10:00,68.4,68.4,30.15,West,274,3.0,14.0,100,0.00,,,0.00,0826,Weather View 32 v70,2013-05-09 20:10:00,
2013-05-09 13:15:00,69.2,69.2,30.15,West,274,5.0,14.0,100,0.00,,,0.00,0830,Weather View 32 v70,2013-05-09 20:15:00,
2013-05-09 13:20:00,67.5,67.5,30.14,NW,319,10.0,14.0,100,0.00,,,0.00,0824,Weather View 32 v70,2013-05-09 20:20:00,
2013-05-09 13:25:00,67.9,67.9,30.15,NW,319,8.0,15.0,100,0.00,,,0.00,0827,Weather View 32 v70,2013-05-09 20:25:00,
2013-05-09 13:34:00,68.3,68.3,30.14,NW,319,8.0,15.0,100,0.00,,,0.00,0827,Weather View 32 v70,2013-05-09 20:34:00,
2013-05-09 13:40:00,69.1,69.1,30.14,NW,319,4.0,15.0,100,0.00,,,0.00,0823,Weather View 32 v70,2013-05-09 20:40:00,
2013-05-09 13:50:00,68.5,68.5,30.14,SSW,207,9.0,16.0,100,0.00,,,0.00,0815,Weather View 32 v70,2013-05-09 20:50:00,
2013-05-09 14:00:00,67.1,67.1,30.14,NW,319,6.0,16.0,100,0.00,,,0.00,0806,Weather View 32 v70,2013-05-09 21:00:00,
2013-05-09 14:05:00,67.5,67.5,30.14,WSW,252,11.0,16.0,100,0.00,,,0.00,0801,Weather View 32 v70,2013-05-09 21:05:00,
2013-05-09 14:10:00,68.3,68.3,30.14,NW,319,3.0,16.0,100,0.00,,,0.00,0795,Weather View 32 v70,2013-05-09 21:10:00,
2013-05-09 14:15:00,67.9,67.9,30.14,WSW,252,4.0,16.0,100,0.00,,,0.00,0789,Weather View 32 v70,2013-05-09 21:15:00,
2013-05-09 14:20:00,67.9,67.9,30.14,West,274,4.0,16.0,100,0.00,,,0.00,0783,Weather View 32 v70,2013-05-09 21:20:00,
2013-05-09 14:30:00,67.1,67.1,30.13,West,274,8.0,17.0,100,0.00,,,0.00,0770,Weather View 32 v70,2013-05-09 21:30:00,
2013-05-09 14:35:00,67.5,67.5,30.13,SW,229,5.0,17.0,100,0.00,,,0.00,0765,Weather View 32 v70,2013-05-09 21:35:00,
2013-05-09 14:45:00,67.1,67.1,30.13,SSW,207,11.0,18.0,100,0.00,,,0.00,0752,Weather View 32 v70,2013-05-09 21:45:00,
2013-05-09 14:50:00,67.1,67.1,30.13,WNW,297,6.0,18.0,100,0.00,,,0.00,0745,Weather View 32 v70,2013-05-09 21:50:00,
2013-05-09 15:00:00,65.3,65.3,30.13,WSW,252,8.0,22.0,100,0.00,,,0.00,0731,Weather View 32 v70,2013-05-09 22:00:00,
2013-05-09 15:05:00,65.7,65.7,30.13,WSW,252,8.0,22.0,100,0.00,,,0.00,0724,Weather View 32 v70,2013-05-09 22:05:00,
2013-05-09 15:15:00,65.2,65.2,30.12,SW,229,14.0,22.0,100,0.00,,,0.00,0713,Weather View 32 v70,2013-05-09 22:15:00,
2013-05-09 15:20:00,65.8,65.8,30.12,SW,229,12.0,22.0,100,0.00,,,0.00,0708,Weather View 32 v70,2013-05-09 22:20:00,
2013-05-09 15:30:00,65.6,65.6,30.12,WSW,252,10.0,22.0,100,0.00,,,0.00,0697,Weather View 32 v70,2013-05-09 22:30:00,
2013-05-09 15:35:00,65.5,65.5,30.12,West,274,10.0,22.0,100,0.00,,,0.00,0690,Weather View 32 v70,2013-05-09 22:35:00,
2013-05-09 15:40:00,64.7,64.7,30.12,WSW,252,14.0,24.0,100,0.00,,,0.00,0684,Weather View 32 v70,2013-05-09 22:40:00,
2013-05-09 15:45:00,65.0,65.0,30.11,SW,229,13.0,24.0,100,0.00,,,0.00,0677,Weather View 32 v70,2013-05-09 22:45:00,
2013-05-09 15:50:00,65.0,65.0,30.11,WSW,252,13.0,24.0,100,0.00,,,0.00,0662,Weather View 32 v70,2013-05-09 22:50:00,
2013-05-09 16:00:00,65.8,65.8,30.11,SW,229,10.0,24.0,100,0.00,,,0.00,0651,Weather View 32 v70,2013-05-09 23:00:00,
2013-05-09 16:05:00,65.0,65.0,30.11,West,274,12.0,24.0,100,0.00,,,0.00,0643,Weather View 32 v70,2013-05-09 23:05:00,
2013-05-09 16:10:00,64.9,64.9,30.11,West,274,10.0,24.0,100,0.00,,,0.00,0633,Weather View 32 v70,2013-05-09 23:10:00,
2013-05-09 16:15:00,65.2,65.2,30.10,SSW,207,7.0,24.0,100,0.00,,,0.00,0622,Weather View 32 v70,2013-05-09 23:15:00,
2013-05-09 16:20:00,65.6,65.6,30.10,West,274,10.0,24.0,100,0.00,,,0.00,0611,Weather View 32 v70,2013-05-09 23:20:00,
2013-05-09 16:30:00,65.5,65.5,30.11,SSW,207,9.0,24.0,100,0.00,,,0.00,0590,Weather View 32 v70,2013-05-09 23:30:00,
2013-05-09 16:35:00,65.4,65.4,30.10,SSW,207,4.0,24.0,100,0.00,,,0.00,0578,Weather View 32 v70,2013-05-09 23:35:00,
2013-05-09 16:40:00,65.6,65.6,30.10,SSW,207,7.0,23.0,100,0.00,,,0.00,0566,Weather View 32 v70,2013-05-09 23:40:00,
2013-05-09 16:45:00,65.4,65.4,30.10,SW,229,6.0,23.0,100,0.00,,,0.00,0553,Weather View 32 v70,2013-05-09 23:45:00,
2013-05-09 16:50:00,64.9,64.9,30.10,SW,229,8.0,23.0,100,0.00,,,0.00,0540,Weather View 32 v70,2013-05-09 23:50:00,
2013-05-09 17:00:00,65.6,65.6,30.10,West,274,6.0,23.0,100,0.00,,,0.00,0517,Weather View 32 v70,2013-05-10 00:00:00,
2013-05-09 17:05:00,65.8,65.8,30.10,WSW,252,9.0,22.0,100,0.00,,,0.00,0502,Weather View 32 v70,2013-05-10 00:05:00,
2013-05-09 17:10:00,66.3,66.3,30.10,NNW,342,4.0,20.0,100,0.00,,,0.00,0417,Weather View 32 v70,2013-05-10 00:10:00,
2013-05-09 17:15:00,66.0,66.0,30.10,SW,229,3.0,19.0,100,0.00,,,0.00,0398,Weather View 32 v70,2013-05-10 00:15:00,
2013-05-09 17:25:00,65.8,65.8,30.10,WNW,297,3.0,19.0,100,0.00,,,0.00,0416,Weather View 32 v70,2013-05-10 00:25:00,
2013-05-09 17:30:00,65.9,65.9,30.10,NNW,342,3.0,17.0,100,0.00,,,0.00,0434,Weather View 32 v70,2013-05-10 00:30:00,
2013-05-09 17:35:00,66.0,66.0,30.10,NW,319,9.0,16.0,100,0.00,,,0.00,0418,Weather View 32 v70,2013-05-10 00:35:00,
2013-05-09 17:40:00,65.2,65.2,30.10,WNW,297,8.0,16.0,100,0.00,,,0.00,0403,Weather View 32 v70,2013-05-10 00:40:00,
2013-05-09 17:45:00,65.1,65.1,30.10,NW,319,7.0,16.0,100,0.00,,,0.00,0391,Weather View 32 v70,2013-05-10 00:45:00,
2013-05-09 17:55:00,65.8,65.8,30.10,WNW,297,4.0,15.0,100,0.00,,,0.00,0366,Weather View 32 v70,2013-05-10 00:55:00,
2013-05-09 18:00:00,66.0,66.0,30.10,West,274,4.0,15.0,100,0.00,,,0.00,0352,Weather View 32 v70,2013-05-10 01:00:00,
2013-05-09 18:05:00,66.2,66.2,30.10,SW,229,6.0,12.0,100,0.00,,,0.00,0340,Weather View 32 v70,2013-05-10 01:05:00,
2013-05-09 18:10:00,65.3,65.3,30.10,NNW,342,7.0,12.0,100,0.00,,,0.00,0326,Weather View 32 v70,2013-05-10 01:10:00,
2013-05-09 18:15:00,64.3,64.3,30.11,WNW,297,6.0,12.0,100,0.00,,,0.00,0311,Weather View 32 v70,2013-05-10 01:15:00,
2013-05-09 18:25:00,64.0,64.0,30.10,WNW,297,4.0,12.0,100,0.00,,,0.00,0286,Weather View 32 v70,2013-05-10 01:25:00,
2013-05-09 18:30:00,64.2,64.2,30.10,NW,319,4.0,12.0,100,0.00,,,0.00,0274,Weather View 32 v70,2013-05-10 01:30:00,
2013-05-09 18:35:00,64.7,64.7,30.11,West,274,6.0,12.0,100,0.00,,,0.00,0261,Weather View 32 v70,2013-05-10 01:35:00,
2013-05-09 18:40:00,64.1,64.1,30.11,WNW,297,8.0,12.0,100,0.00,,,0.00,0247,Weather View 32 v70,2013-05-10 01:40:00,
2013-05-09 18:45:00,63.6,63.6,30.11,NW,319,6.0,12.0,100,0.00,,,0.00,0231,Weather View 32 v70,2013-05-10 01:45:00,
2013-05-09 18:55:00,63.8,63.8,30.11,NNW,342,6.0,12.0,100,0.00,,,0.00,0203,Weather View 32 v70,2013-05-10 01:55:00,
2013-05-09 19:00:00,63.1,63.1,30.11,NW,319,4.0,12.0,100,0.00,,,0.00,0039,Weather View 32 v70,2013-05-10 02:00:00,
2013-05-09 19:05:00,62.7,62.7,30.11,WNW,297,9.0,12.0,100,0.00,,,0.00,0073,Weather View 32 v70,2013-05-10 02:05:00,
2013-05-09 19:10:00,61.8,61.8,30.11,NW,319,4.0,14.0,100,0.00,,,0.00,0085,Weather View 32 v70,2013-05-10 02:10:00,
2013-05-09 19:15:00,61.6,61.6,30.12,NNE,27,3.0,14.0,100,0.00,,,0.00,0029,Weather View 32 v70,2013-05-10 02:15:00,
2013-05-09 19:20:00,61.5,61.5,30.12,ENE,72,1.0,14.0,100,0.00,,,0.00,0026,Weather View 32 v70,2013-05-10 02:20:00,
2013-05-09 19:30:00,61.6,61.6,30.13,North,4,4.0,14.0,100,0.00,,,0.00,0022,Weather View 32 v70,2013-05-10 02:30:00,
2013-05-09 19:35:00,60.7,60.7,30.13,North,4,4.0,14.0,100,0.00,,,0.00,0020,Weather View 32 v70,2013-05-10 02:35:00,
2013-05-09 19:40:00,60.5,60.5,30.13,SE,139,0.0,14.0,100,0.00,,,0.00,0018,Weather View 32 v70,2013-05-10 02:40:00,
2013-05-09 19:45:00,60.0,60.0,30.14,South,184,1.0,14.0,100,0.00,,,0.00,0016,Weather View 32 v70,2013-05-10 02:45:00,
2013-05-09 19:50:00,59.6,59.6,30.14,South,184,1.0,14.0,100,0.00,,,0.00,0013,Weather View 32 v70,2013-05-10 02:50:00,
2013-05-09 20:00:00,58.7,58.7,30.14,NNW,342,3.0,14.0,100,0.00,,,0.00,0008,Weather View 32 v70,2013-05-10 03:00:00,
2013-05-09 20:05:00,58.4,58.4,30.15,ESE,117,2.0,14.0,100,0.00,,,0.00,0006,Weather View 32 v70,2013-05-10 03:05:00,
2013-05-09 20:10:00,57.6,57.6,30.15,NW,319,4.0,12.0,100,0.00,,,0.00,0004,Weather View 32 v70,2013-05-10 03:10:00,
2013-05-09 20:15:00,56.7,56.7,30.15,WSW,252,7.0,12.0,100,0.00,,,0.00,0003,Weather View 32 v70,2013-05-10 03:15:00,
2013-05-09 20:20:00,56.4,56.4,30.15,WSW,252,2.0,12.0,100,0.00,,,0.00,0002,Weather View 32 v70,2013-05-10 03:20:00,
2013-05-09 20:25:00,56.3,56.3,30.15,SSW,207,1.0,12.0,100,0.00,,,0.00,0002,Weather View 32 v70,2013-05-10 03:25:00,
2013-05-09 20:35:00,55.5,55.5,30.15,South,184,7.0,12.0,100,0.00,,,0.00,0001,Weather View 32 v70,2013-05-10 03:35:00,
2013-05-09 20:40:00,55.8,55.8,30.15,SSW,207,7.0,12.0,100,0.00,,,0.00,0001,Weather View 32 v70,2013-05-10 03:40:00,
2013-05-09 20:45:00,55.7,55.7,30.15,WNW,297,8.0,16.0,100,0.00,,,0.00,0001,Weather View 32 v70,2013-05-10 03:45:00,
2013-05-09 20:50:00,55.6,55.6,30.16,WNW,297,7.0,16.0,100,0.00,,,0.00,0001,Weather View 32 v70,2013-05-10 03:50:00,
2013-05-09 20:55:00,55.5,55.5,30.16,West,274,4.0,16.0,100,0.00,,,0.00,0001,Weather View 32 v70,2013-05-10 03:55:00,
2013-05-09 21:00:00,55.7,55.7,30.17,West,274,10.0,16.0,100,0.00,,,0.00,0001,Weather View 32 v70,2013-05-10 04:00:00,
2013-05-09 21:05:00,55.7,55.7,30.17,WNW,297,5.0,16.0,100,0.00,,,0.00,0001,Weather View 32 v70,2013-05-10 04:05:00,
2013-05-09 21:10:00,55.6,55.6,30.17,WNW,297,9.0,16.0,100,0.00,,,0.00,0001,Weather View 32 v70,2013-05-10 04:10:00,
2013-05-09 21:15:00,55.4,55.4,30.17,WSW,252,4.0,16.0,100,0.00,,,0.00,0002,Weather View 32 v70,2013-05-10 04:15:00,
2013-05-09 21:20:00,55.0,55.0,30.17,NW,319,5.0,16.0,100,0.00,,,0.00,0002,Weather View 32 v70,2013-05-10 04:20:00,
2013-05-09 21:25:00,55.0,55.0,30.18,WSW,252,3.0,16.0,100,0.00,,,0.00,0002,Weather View 32 v70,2013-05-10 04:25:00,
2013-05-09 21:30:00,55.0,55.0,30.18,WSW,252,1.0,16.0,100,0.00,,,0.00,0001,Weather View 32 v70,2013-05-10 04:30:00,
2013-05-09 21:39:00,55.0,55.0,30.18,West,274,1.0,16.0,100,0.00,,,0.00,0001,Weather View 32 v70,2013-05-10 04:39:00,
2013-05-09 21:45:00,54.9,54.9,30.18,SW,229,2.0,12.0,100,0.00,,,0.00,0001,Weather View 32 v70,2013-05-10 04:45:00,
2013-05-09 21:50:00,54.8,54.8,30.19,SW,229,6.0,12.0,100,0.00,,,0.00,0001,Weather View 32 v70,2013-05-10 04:50:00,
2013-05-09 21:55:00,55.0,55.0,30.19,SW,229,3.0,11.0,100,0.00,,,0.00,0002,Weather View 32 v70,2013-05-10 04:55:00,
2013-05-09 22:00:00,54.9,54.9,30.19,SW,229,3.0,11.0,100,0.00,,,0.00,0002,Weather View 32 v70,2013-05-10 05:00:00,
2013-05-09 22:05:00,54.8,54.8,30.19,South,184,0.0,11.0,100,0.00,,,0.00,0001,Weather View 32 v70,2013-05-10 05:05:00,
2013-05-09 22:15:00,54.5,54.5,30.19,South,184,0.0,10.0,100,0.00,,,0.00,0001,Weather View 32 v70,2013-05-10 05:15:00,
2013-05-09 22:20:00,54.3,54.3,30.19,SE,139,0.0,10.0,100,0.00,,,0.00,0001,Weather View 32 v70,2013-05-10 05:20:00,
2013-05-09 22:25:00,54.1,54.1,30.19,WSW,252,0.0,9.0,100,0.00,,,0.00,0002,Weather View 32 v70,2013-05-10 05:25:00,
2013-05-09 22:30:00,54.0,54.0,30.19,NNW,342,0.0,9.0,100,0.00,,,0.00,0001,Weather View 32 v70,2013-05-10 05:30:00,
2013-05-09 22:39:00,54.0,54.0,30.19,NW,319,5.0,9.0,100,0.00,,,0.00,0001,Weather View 32 v70,2013-05-10 05:39:00,
2013-05-09 22:45:00,53.9,53.9,30.20,WNW,297,3.0,9.0,100,0.00,,,0.00,0002,Weather View 32 v70,2013-05-10 05:45:00,
2013-05-09 22:50:00,53.9,53.9,30.20,SSW,207,1.0,9.0,100,0.00,,,0.00,0002,Weather View 32 v70,2013-05-10 05:50:00,
2013-05-09 23:00:00,53.5,53.5,30.20,South,184,2.0,7.0,100,0.00,,,0.00,0001,Weather View 32 v70,2013-05-10 06:00:00,
2013-05-09 23:05:00,53.5,53.5,30.20,WNW,297,0.0,7.0,100,0.00,,,0.00,0002,Weather View 32 v70,2013-05-10 06:05:00,
2013-05-09 23:10:00,53.5,53.5,30.20,East,94,0.0,7.0,100,0.00,,,0.00,0002,Weather View 32 v70,2013-05-10 06:10:00,
2013-05-09 23:20:00,53.5,53.5,30.19,West,274,1.0,7.0,100,0.00,,,0.00,0002,Weather View 32 v70,2013-05-10 06:20:00,
2013-05-09 23:25:00,53.4,53.4,30.20,NW,319,1.0,7.0,100,0.00,,,0.00,0001,Weather View 32 v70,2013-05-10 06:25:00,
2013-05-09 23:35:00,53.4,53.4,30.20,SSW,207,0.0,7.0,100,0.00,,,0.00,0002,Weather View 32 v70,2013-05-10 06:35:00,
2013-05-09 23:40:00,53.0,53.0,30.20,WSW,252,0.0,7.0,100,0.00,,,0.00,0001,Weather View 32 v70,2013-05-10 06:40:00,
2013-05-09 23:50:00,52.8,52.8,30.20,SE,139,0.0,5.0,100,0.00,,,0.00,0002,Weather View 32 v70,2013-05-10 06:50:00,
2013-05-09 23:55:00,52.6,52.6,30.20,WSW,252,1.0,5.0,100,0.00,,,0.00,0002,Weather View 32 v70,2013-05-10 06:55:00,